M I D A S
Marine Information and Data Acquisition System
Tripno 837 of the Zeeleeuw from 2005-01-13 07:08:01 to 2005-01-13 17:56:54
Back to CruiseResearch ActivitiesStationsMapUnderway DataData graphs

EquipmentUnitsComments
TimeDGPSUTC
LatitudeDGPSDM.mWGS84
LongitudeDGPSDM.mWGS84
SpeedMeteo Stationm/sRelative wind speed
DirectionMeteo StationdegRelative wind direction
TemperatureMeteo Stationdeg CelciusAir temperature
PressureMeteo StationPaAtmospheric pressure
HumidityMeteo Station%Relative humidity
Missing or incorrect values are displayed as -999
Metereological data collected by the RV Zeeleeuw from 2005-01-13 07:08:44 to 2005-01-13 18:06:43
                                                                                    Next 1000 lines
Time Latitude Longitude Speed Direction Temperature Pressure Humidity
2005-01-13 07:08:54 51°13.593 2°56.101 9.5 201 7.7 102620 66
2005-01-13 07:08:59 51°13.594 2°56.098 7.9 198 7.7 102620 66
2005-01-13 07:09:04 51°13.595 2°56.094 9.3 205 7.7 102620 66
2005-01-13 07:09:09 51°13.597 2°56.09 7.6 202 7.8 102630 67
2005-01-13 07:09:13 51°13.598 2°56.086 9.8 209 7.8 102630 67
2005-01-13 07:09:20 51°13.6 2°56.079 7.2 194 7.7 102620 66
2005-01-13 07:09:25 51°13.602 2°56.073 5.5 193 7.7 102620 66
2005-01-13 07:09:30 51°13.605 2°56.067 6.1 186 7.7 102630 66
2005-01-13 07:09:35 51°13.607 2°56.06 6.8 183 7.7 102630 66
2005-01-13 07:09:39 51°13.609 2°56.055 4.8 196 7.7 102620 66
2005-01-13 07:09:45 51°13.612 2°56.046 4.3 192 7.7 102620 66
2005-01-13 07:09:49 51°13.614 2°56.04 7.5 187 7.8 102620 69
2005-01-13 07:09:55 51°13.618 2°56.03 7 183 7.8 102620 69
2005-01-13 07:09:59 51°13.62 2°56.023 4.3 179 7.9 102620 68
2005-01-13 07:10:05 51°13.623 2°56.013 6 181 7.9 102620 68
2005-01-13 07:10:09 51°13.626 2°56.006 9.1 170 8 102620 69
2005-01-13 07:10:15 51°13.63 2°55.995 12 176 8 102620 69
2005-01-13 07:10:19 51°13.632 2°55.988 7 191 8 102620 68
2005-01-13 07:10:25 51°13.636 2°55.977 8.1 186 8 102620 68
2005-01-13 07:10:29 51°13.639 2°55.97 8 182 8 102620 67
2005-01-13 07:10:35 51°13.643 2°55.959 5.9 190 8 102620 67
2005-01-13 07:10:39 51°13.645 2°55.951 7.2 185 8 102610 65
2005-01-13 07:10:45 51°13.649 2°55.939 6.7 199 8 102610 65
2005-01-13 07:10:49 51°13.652 2°55.931 6.7 192 8 102630 65
2005-01-13 07:10:55 51°13.655 2°55.918 4.2 195 8 102630 65
2005-01-13 07:10:59 51°13.658 2°55.91 7.1 193 8 102620 66
2005-01-13 07:11:05 51°13.661 2°55.897 5.8 191 8 102620 66
2005-01-13 07:11:09 51°13.663 2°55.888 7.4 201 8 102630 67
2005-01-13 07:11:15 51°13.666 2°55.875 11.4 215 8 102630 67
2005-01-13 07:11:19 51°13.667 2°55.866 11.8 210 8.1 102630 67
2005-01-13 07:11:25 51°13.67 2°55.852 9.3 226 8.1 102630 67
2005-01-13 07:11:29 51°13.671 2°55.843 10.5 227 8.1 102630 66
2005-01-13 07:11:35 51°13.672 2°55.829 11.3 217 8.1 102630 66
2005-01-13 07:11:39 51°13.673 2°55.82 9.5 203 8 102630 65
2005-01-13 07:11:45 51°13.674 2°55.806 7.3 221 8 102630 65
2005-01-13 07:11:49 51°13.675 2°55.797 9.6 209 8 102640 65
2005-01-13 07:11:54 51°13.675 2°55.786 8 231 8 102640 65
2005-01-13 07:11:59 51°13.676 2°55.775 7.3 230 8 102640 65
2005-01-13 07:12:05 51°13.677 2°55.763 8.5 215 8 102640 65
2005-01-13 07:12:09 51°13.677 2°55.756 10.1 227 7.9 102640 65
2005-01-13 07:12:15 51°13.677 2°55.747 8 204 7.9 102640 65
2005-01-13 07:12:19 51°13.677 2°55.743 9.5 213 7.9 102630 65
2005-01-13 07:12:24 51°13.677 2°55.741 11.2 228 7.9 102630 65
2005-01-13 07:12:29 51°13.678 2°55.742 10.5 208 7.9 102630 66
2005-01-13 07:12:34 51°13.679 2°55.745 3.9 259 7.9 102630 66
2005-01-13 07:12:38 51°13.681 2°55.748 4.3 286 7.9 102630 66
2005-01-13 07:12:45 51°13.685 2°55.754 7.3 308 7.9 102630 66
2005-01-13 07:12:49 51°13.689 2°55.756 7.5 309 7.9 102630 65
2005-01-13 07:12:53 51°13.692 2°55.759 6.3 310 7.9 102630 65
2005-01-13 07:12:59 51°13.697 2°55.761 10.4 311 7.8 102620 66
2005-01-13 07:13:04 51°13.7 2°55.762 6.2 308 7.8 102620 66
2005-01-13 07:13:09 51°13.703 2°55.762 4.6 334 7.8 102620 66
2005-01-13 07:13:13 51°13.704 2°55.763 5.8 293 7.8 102620 66
2005-01-13 07:13:19 51°13.704 2°55.762 6 288 7.8 102610 66
2005-01-13 07:13:25 51°13.703 2°55.762 4.8 284 7.8 102610 66
2005-01-13 07:13:29 51°13.702 2°55.762 5.7 260 7.7 102640 66
2005-01-13 07:13:34 51°13.701 2°55.762 5.4 311 7.7 102640 66
2005-01-13 07:13:40 51°13.699 2°55.761 5.3 346 7.8 102610 66
2005-01-13 07:13:45 51°13.7 2°55.761 5.1 292 7.8 102610 66
2005-01-13 07:13:49 51°13.701 2°55.76 5 349 7.7 102640 66
2005-01-13 07:13:55 51°13.704 2°55.758 5.3 348 7.7 102640 66
2005-01-13 07:13:59 51°13.706 2°55.756 10.2 357 7.7 102620 66
2005-01-13 07:14:05 51°13.711 2°55.752 11.7 10 7.7 102620 66
2005-01-13 07:14:09 51°13.715 2°55.749 9.3 352 7.7 102620 66
2005-01-13 07:14:13 51°13.718 2°55.745 5.3 340 7.7 102620 66
2005-01-13 07:14:19 51°13.724 2°55.739 9.7 348 7.7 102620 66
2005-01-13 07:14:23 51°13.728 2°55.734 13.4 1 7.7 102620 66
2005-01-13 07:14:29 51°13.735 2°55.725 11.1 359 7.7 102620 66
2005-01-13 07:14:34 51°13.741 2°55.718 13.1 14 7.7 102620 66
2005-01-13 07:14:39 51°13.748 2°55.71 8.1 352 7.7 102590 66
2005-01-13 07:14:43 51°13.754 2°55.703 8 1 7.7 102590 66
2005-01-13 07:14:49 51°13.763 2°55.693 7 357 7.7 102600 66
2005-01-13 07:14:53 51°13.77 2°55.687 10.4 5 7.7 102600 66
2005-01-13 07:14:57 51°13.777 2°55.68 9.9 20 7.7 102610 66
2005-01-13 07:15:04 51°13.79 2°55.668 6 16 7.7 102610 66
2005-01-13 07:15:09 51°13.799 2°55.659 11.7 3 7.7 102620 66
2005-01-13 07:15:14 51°13.809 2°55.65 10.9 19 7.7 102620 66
2005-01-13 07:15:19 51°13.819 2°55.64 11.2 9 7.6 102620 66
2005-01-13 07:15:24 51°13.829 2°55.631 9.5 14 7.6 102620 66
2005-01-13 07:15:29 51°13.839 2°55.621 8.8 355 7.6 102620 66
2005-01-13 07:15:34 51°13.85 2°55.613 9.9 336 7.6 102620 66
2005-01-13 07:15:39 51°13.862 2°55.604 8.8 328 7.7 102630 66
2005-01-13 07:15:43 51°13.871 2°55.598 12.9 328 7.7 102630 66
2005-01-13 07:15:49 51°13.886 2°55.589 10 344 7.6 102620 66
2005-01-13 07:15:54 51°13.898 2°55.581 7.4 334 7.6 102620 66
2005-01-13 07:15:59 51°13.91 2°55.574 7.6 340 7.6 102630 66
2005-01-13 07:16:02 51°13.917 2°55.569 10.6 327 7.6 102630 66
2005-01-13 07:16:09 51°13.934 2°55.557 10.4 326 7.6 102610 66
2005-01-13 07:16:14 51°13.945 2°55.549 10 343 7.6 102610 66
2005-01-13 07:16:19 51°13.957 2°55.54 8.7 346 7.6 102610 66
2005-01-13 07:16:23 51°13.966 2°55.533 11.6 351 7.6 102610 66
2005-01-13 07:16:29 51°13.981 2°55.523 15.7 353 7.6 102620 66
2005-01-13 07:16:34 51°13.992 2°55.514 13 349 7.6 102620 66
2005-01-13 07:16:37 51°14 2°55.508 9.3 337 7.6 102600 66
2005-01-13 07:16:44 51°14.016 2°55.497 9.6 332 7.6 102600 66
2005-01-13 07:16:49 51°14.028 2°55.488 9.1 2 7.6 102620 66
2005-01-13 07:16:53 51°14.038 2°55.482 12.4 340 7.6 102620 66
2005-01-13 07:16:59 51°14.053 2°55.472 15.5 338 7.6 102620 65
2005-01-13 07:17:03 51°14.062 2°55.465 11.7 353 7.6 102620 65
2005-01-13 07:17:09 51°14.077 2°55.454 15.7 334 7.6 102610 66
2005-01-13 07:17:14 51°14.089 2°55.446 15.7 336 7.6 102610 66
2005-01-13 07:17:19 51°14.101 2°55.436 14.9 339 7.6 102620 66
2005-01-13 07:17:21 51°14.106 2°55.433 15.7 340 7.6 102620 66
2005-01-13 07:17:29 51°14.126 2°55.418 14.8 339 7.6 102600 67
2005-01-13 07:17:33 51°14.135 2°55.41 17.3 345 7.6 102600 67
2005-01-13 07:17:39 51°14.15 2°55.398 12.9 340 7.6 102600 68
2005-01-13 07:17:43 51°14.159 2°55.39 15.8 341 7.6 102600 68
2005-01-13 07:17:49 51°14.173 2°55.377 17.3 342 7.6 102590 69
2005-01-13 07:17:53 51°14.183 2°55.368 14.8 339 7.6 102590 69
2005-01-13 07:17:59 51°14.196 2°55.353 15.3 338 7.6 102600 69
2005-01-13 07:18:01 51°14.201 2°55.348 17 352 7.6 102600 69
2005-01-13 07:18:09 51°14.218 2°55.327 14.4 332 7.6 102600 69
2005-01-13 07:18:14 51°14.228 2°55.313 17.2 341 7.6 102600 69
2005-01-13 07:18:19 51°14.238 2°55.299 14.1 344 7.6 102600 69
2005-01-13 07:18:24 51°14.248 2°55.283 18.5 345 7.6 102600 69
2005-01-13 07:18:29 51°14.257 2°55.268 17.9 356 7.6 102610 69
2005-01-13 07:18:33 51°14.264 2°55.255 13.8 352 7.6 102610 69
2005-01-13 07:18:39 51°14.276 2°55.236 13.3 352 7.6 102610 69
2005-01-13 07:18:43 51°14.283 2°55.223 14 353 7.6 102610 69
2005-01-13 07:18:49 51°14.294 2°55.203 15.1 351 7.6 102610 70
2005-01-13 07:18:53 51°14.3 2°55.19 14.9 352 7.6 102610 70
2005-01-13 07:18:59 51°14.311 2°55.17 15.3 352 7.6 102610 70
2005-01-13 07:19:03 51°14.318 2°55.157 16 344 7.6 102610 70
2005-01-13 07:19:09 51°14.328 2°55.139 16.9 350 7.6 102600 70
2005-01-13 07:19:14 51°14.338 2°55.123 16.3 348 7.6 102600 70
2005-01-13 07:19:19 51°14.347 2°55.107 17.8 346 7.6 102590 71
2005-01-13 07:19:23 51°14.354 2°55.095 17.6 345 7.6 102590 71
2005-01-13 07:19:29 51°14.366 2°55.077 16.7 346 7.6 102600 71
2005-01-13 07:19:34 51°14.375 2°55.062 16.7 346 7.6 102600 71
2005-01-13 07:19:37 51°14.38 2°55.053 15.1 349 7.6 102570 70
2005-01-13 07:19:44 51°14.393 2°55.032 16.5 348 7.6 102570 70
2005-01-13 07:19:49 51°14.404 2°55.017 15 342 7.6 102590 70
2005-01-13 07:19:53 51°14.412 2°55.007 15.4 337 7.6 102590 70
2005-01-13 07:19:59 51°14.421 2°54.994 17.2 341 7.6 102570 70
2005-01-13 07:20:04 51°14.431 2°54.981 14.8 337 7.6 102570 70
2005-01-13 07:20:09 51°14.438 2°54.969 15.2 342 7.6 102590 71
2005-01-13 07:20:14 51°14.446 2°54.957 14.1 337 7.6 102590 71
2005-01-13 07:20:19 51°14.453 2°54.947 16.8 336 7.7 102590 71
2005-01-13 07:20:24 51°14.46 2°54.935 16.8 339 7.7 102590 71
2005-01-13 07:20:29 51°14.468 2°54.924 15.5 336 7.7 102590 70
2005-01-13 07:20:33 51°14.472 2°54.917 14.2 339 7.7 102590 70
2005-01-13 07:20:39 51°14.481 2°54.903 14.3 330 7.6 102600 70
2005-01-13 07:20:44 51°14.489 2°54.892 15.7 330 7.6 102600 70
2005-01-13 07:20:49 51°14.498 2°54.881 14.2 338 7.6 102560 69
2005-01-13 07:20:53 51°14.506 2°54.872 14.5 340 7.6 102560 69
2005-01-13 07:20:59 51°14.517 2°54.859 13.6 340 7.6 102590 69
2005-01-13 07:21:03 51°14.525 2°54.849 13.3 338 7.6 102590 69
2005-01-13 07:21:09 51°14.538 2°54.833 18.6 343 7.6 102600 69
2005-01-13 07:21:14 51°14.55 2°54.819 15.7 338 7.6 102600 69
2005-01-13 07:21:19 51°14.561 2°54.806 16.6 338 7.6 102580 70
2005-01-13 07:21:23 51°14.571 2°54.795 16.9 334 7.6 102580 70
2005-01-13 07:21:29 51°14.586 2°54.778 17.6 333 7.7 102570 71
2005-01-13 07:21:33 51°14.596 2°54.766 18.7 335 7.7 102570 71
2005-01-13 07:21:39 51°14.61 2°54.75 18.8 335 7.7 102570 70
2005-01-13 07:21:42 51°14.618 2°54.741 19.1 335 7.7 102570 70
2005-01-13 07:21:49 51°14.637 2°54.72 17.7 338 7.6 102560 69
2005-01-13 07:21:53 51°14.648 2°54.708 19 337 7.6 102560 69
2005-01-13 07:21:59 51°14.664 2°54.691 16.6 340 7.6 102570 69
2005-01-13 07:22:04 51°14.678 2°54.676 18.8 335 7.6 102570 69
2005-01-13 07:22:09 51°14.692 2°54.661 18.3 336 7.6 102550 69
2005-01-13 07:22:14 51°14.707 2°54.645 18.7 337 7.6 102550 69
2005-01-13 07:22:19 51°14.721 2°54.629 19 338 7.6 102580 69
2005-01-13 07:22:23 51°14.732 2°54.616 17.4 334 7.6 102580 69
2005-01-13 07:22:29 51°14.749 2°54.597 19.5 335 7.6 102560 69
2005-01-13 07:22:33 51°14.76 2°54.585 19.3 335 7.6 102560 69
2005-01-13 07:22:39 51°14.778 2°54.565 17.9 338 7.6 102540 69
2005-01-13 07:22:45 51°14.796 2°54.546 17.7 334 7.6 102540 69
2005-01-13 07:22:49 51°14.807 2°54.534 18.4 333 7.6 102570 69
2005-01-13 07:22:54 51°14.822 2°54.517 16.2 333 7.6 102570 69
2005-01-13 07:22:58 51°14.833 2°54.505 18.5 332 7.6 102540 68
2005-01-13 07:23:03 51°14.849 2°54.488 16.6 327 7.6 102540 68
2005-01-13 07:23:09 51°14.866 2°54.47 17.8 342 7.7 102570 69
2005-01-13 07:23:13 51°14.877 2°54.457 16.7 340 7.7 102570 69
2005-01-13 07:23:19 51°14.894 2°54.439 18.6 337 7.6 102540 69
2005-01-13 07:23:22 51°14.903 2°54.43 20.3 340 7.6 102540 69
2005-01-13 07:23:29 51°14.924 2°54.41 19.8 338 7.7 102560 69
2005-01-13 07:23:33 51°14.935 2°54.397 19.9 339 7.7 102560 69
2005-01-13 07:23:39 51°14.954 2°54.378 19.7 334 7.7 102570 70
2005-01-13 07:23:45 51°14.97 2°54.361 17.9 335 7.7 102570 70
2005-01-13 07:23:49 51°14.981 2°54.348 17.2 332 7.7 102550 69
2005-01-13 07:23:53 51°14.993 2°54.335 20.2 333 7.7 102550 69
2005-01-13 07:23:59 51°15.01 2°54.316 19.3 329 7.7 102540 69
2005-01-13 07:24:03 51°15.022 2°54.304 18.3 333 7.7 102540 69
2005-01-13 07:24:09 51°15.039 2°54.285 16.9 335 7.7 102560 69
2005-01-13 07:24:13 51°15.051 2°54.273 17.6 336 7.7 102560 69
2005-01-13 07:24:19 51°15.068 2°54.254 17.6 335 7.7 102560 69
2005-01-13 07:24:22 51°15.077 2°54.244 18.6 334 7.7 102560 69
2005-01-13 07:24:29 51°15.097 2°54.221 17.8 335 7.7 102560 68
2005-01-13 07:24:34 51°15.112 2°54.205 16.7 334 7.7 102560 68
2005-01-13 07:24:39 51°15.126 2°54.189 18.2 335 7.7 102560 68
2005-01-13 07:24:44 51°15.142 2°54.173 17.4 330 7.7 102560 68
2005-01-13 07:24:49 51°15.156 2°54.157 17.9 331 7.7 102560 69
2005-01-13 07:24:54 51°15.173 2°54.14 17.6 333 7.7 102560 69
2005-01-13 07:24:59 51°15.186 2°54.125 19.5 337 7.7 102560 69
2005-01-13 07:25:04 51°15.202 2°54.107 17.5 336 7.7 102560 69
2005-01-13 07:25:09 51°15.216 2°54.092 16.6 337 7.7 102540 69
2005-01-13 07:25:14 51°15.231 2°54.075 16.7 340 7.7 102540 69
2005-01-13 07:25:19 51°15.245 2°54.06 18.7 341 7.7 102570 69
2005-01-13 07:25:23 51°15.257 2°54.047 17.8 338 7.7 102570 69
2005-01-13 07:25:29 51°15.276 2°54.027 16.6 339 7.7 102550 69
2005-01-13 07:25:33 51°15.289 2°54.013 14.8 339 7.7 102550 69
2005-01-13 07:25:38 51°15.301 2°54 20.5 336 7.7 102570 69
2005-01-13 07:25:45 51°15.324 2°53.979 18.6 338 7.7 102570 69
2005-01-13 07:25:49 51°15.334 2°53.968 16.3 338 7.7 102570 69
2005-01-13 07:25:53 51°15.345 2°53.955 16.3 337 7.7 102570 69
2005-01-13 07:25:59 51°15.363 2°53.936 18.3 343 7.7 102580 70
2005-01-13 07:26:04 51°15.375 2°53.922 18.8 340 7.7 102580 70
2005-01-13 07:26:09 51°15.391 2°53.905 16.6 343 7.7 102570 71
2005-01-13 07:26:13 51°15.402 2°53.892 18.5 338 7.7 102570 71
2005-01-13 07:26:17 51°15.413 2°53.88 18.3 339 7.7 102560 71
2005-01-13 07:26:23 51°15.432 2°53.86 19.8 336 7.7 102560 71
2005-01-13 07:26:29 51°15.45 2°53.841 19.1 338 7.7 102590 71
2005-01-13 07:26:33 51°15.461 2°53.829 18.2 338 7.7 102590 71
2005-01-13 07:26:39 51°15.478 2°53.81 17.6 338 7.7 102550 71
2005-01-13 07:26:42 51°15.488 2°53.8 17.4 336 7.7 102550 71
2005-01-13 07:26:49 51°15.508 2°53.777 18.9 337 7.7 102590 70
2005-01-13 07:26:54 51°15.525 2°53.759 18.1 338 7.7 102590 70
2005-01-13 07:26:59 51°15.537 2°53.747 19.7 338 7.7 102570 70
2005-01-13 07:27:03 51°15.549 2°53.735 19.7 340 7.7 102570 70
2005-01-13 07:27:09 51°15.567 2°53.715 19.3 338 7.7 102550 70
2005-01-13 07:27:13 51°15.579 2°53.702 19.9 339 7.7 102550 70
2005-01-13 07:27:19 51°15.597 2°53.683 18.7 338 7.7 102550 70
2005-01-13 07:27:23 51°15.608 2°53.67 18.2 338 7.7 102550 70
2005-01-13 07:27:29 51°15.625 2°53.652 17.8 337 7.7 102560 69
2005-01-13 07:27:33 51°15.638 2°53.638 17.3 338 7.7 102560 69
2005-01-13 07:27:39 51°15.654 2°53.621 18.3 340 7.7 102570 69
2005-01-13 07:27:44 51°15.67 2°53.605 18.5 343 7.7 102570 69
2005-01-13 07:27:49 51°15.684 2°53.589 18.8 340 7.7 102540 69
2005-01-13 07:27:53 51°15.695 2°53.577 18.2 338 7.7 102540 69
2005-01-13 07:27:59 51°15.713 2°53.556 20.1 338 7.7 102550 69
2005-01-13 07:28:04 51°15.727 2°53.541 17.9 335 7.7 102550 69
2005-01-13 07:28:09 51°15.741 2°53.526 21.2 331 7.7 102560 69
2005-01-13 07:28:13 51°15.753 2°53.514 20.7 329 7.7 102560 69
2005-01-13 07:28:19 51°15.772 2°53.495 17.3 332 7.7 102560 70
2005-01-13 07:28:22 51°15.781 2°53.487 17.9 330 7.7 102560 70
2005-01-13 07:28:29 51°15.802 2°53.468 18.7 333 7.7 102580 70
2005-01-13 07:28:34 51°15.818 2°53.455 18.8 328 7.7 102580 70
2005-01-13 07:28:38 51°15.831 2°53.446 18.3 332 7.7 102530 69
2005-01-13 07:28:42 51°15.845 2°53.436 21.5 327 7.7 102530 69
2005-01-13 07:28:49 51°15.868 2°53.421 19.9 325 7.7 102570 70
2005-01-13 07:28:54 51°15.885 2°53.409 17 322 7.7 102570 70
2005-01-13 07:28:59 51°15.899 2°53.4 18.6 328 7.7 102550 70
2005-01-13 07:29:04 51°15.914 2°53.387 17.5 330 7.7 102550 70
2005-01-13 07:29:09 51°15.931 2°53.376 16.7 332 7.7 102550 69
2005-01-13 07:29:13 51°15.944 2°53.366 15.7 330 7.7 102550 69
2005-01-13 07:29:19 51°15.962 2°53.354 18.4 330 7.7 102520 69
2005-01-13 07:29:22 51°15.972 2°53.346 17.1 328 7.7 102520 69
2005-01-13 07:29:29 51°15.994 2°53.33 19.9 329 7.7 102570 69
2005-01-13 07:29:34 51°16.011 2°53.319 20.6 329 7.7 102570 69
2005-01-13 07:29:39 51°16.029 2°53.307 17.5 326 7.7 102570 70
2005-01-13 07:29:42 51°16.036 2°53.3 18.1 326 7.7 102570 70
2005-01-13 07:29:49 51°16.058 2°53.284 18.3 335 7.7 102550 70
2005-01-13 07:29:54 51°16.074 2°53.272 17 325 7.7 102550 70
2005-01-13 07:29:59 51°16.09 2°53.261 16 324 7.7 102540 70
2005-01-13 07:30:04 51°16.105 2°53.25 15.3 330 7.7 102540 70
2005-01-13 07:30:09 51°16.122 2°53.238 18.2 324 7.7 102570 70
2005-01-13 07:30:14 51°16.137 2°53.228 18.7 323 7.7 102570 70
2005-01-13 07:30:19 51°16.154 2°53.217 17.9 322 7.7 102530 70
2005-01-13 07:30:24 51°16.17 2°53.206 15.4 328 7.7 102530 70
2005-01-13 07:30:29 51°16.187 2°53.193 16.2 327 7.7 102560 70
2005-01-13 07:30:33 51°16.199 2°53.184 16.3 327 7.7 102560 70
2005-01-13 07:30:39 51°16.219 2°53.17 16.9 326 7.7 102550 70
2005-01-13 07:30:44 51°16.236 2°53.159 15.5 327 7.7 102550 70
2005-01-13 07:30:49 51°16.251 2°53.147 15.5 332 7.7 102550 71
2005-01-13 07:30:54 51°16.268 2°53.135 16.1 330 7.7 102550 71
2005-01-13 07:30:59 51°16.284 2°53.123 17.6 325 7.8 102580 71
2005-01-13 07:31:03 51°16.298 2°53.114 17.1 331 7.8 102580 71
2005-01-13 07:31:09 51°16.317 2°53.1 19.9 330 7.8 102560 71
2005-01-13 07:31:13 51°16.33 2°53.091 17.9 331 7.8 102560 71
2005-01-13 07:31:19 51°16.349 2°53.077 17.5 337 7.8 102590 71
2005-01-13 07:31:24 51°16.365 2°53.066 19.7 333 7.8 102590 71
2005-01-13 07:31:29 51°16.383 2°53.055 17.6 328 7.8 102580 71
2005-01-13 07:31:34 51°16.399 2°53.045 19 324 7.8 102580 71
2005-01-13 07:31:39 51°16.412 2°53.035 19.5 327 7.8 102560 70
2005-01-13 07:31:45 51°16.433 2°53.024 20.5 325 7.8 102560 70
2005-01-13 07:31:49 51°16.446 2°53.016 16 319 7.8 102570 70
2005-01-13 07:31:54 51°16.459 2°53.007 15.8 325 7.8 102570 70
2005-01-13 07:31:59 51°16.473 2°52.998 18.8 326 7.8 102550 70
2005-01-13 07:32:03 51°16.485 2°52.99 18.4 324 7.8 102550 70
2005-01-13 07:32:09 51°16.505 2°52.977 18.1 327 7.8 102580 70
2005-01-13 07:32:13 51°16.517 2°52.97 18 324 7.8 102580 70
2005-01-13 07:32:19 51°16.536 2°52.956 15.6 334 7.7 102570 70
2005-01-13 07:32:23 51°16.549 2°52.947 15 329 7.7 102570 70
2005-01-13 07:32:29 51°16.566 2°52.934 17.3 331 7.7 102550 70
2005-01-13 07:32:33 51°16.579 2°52.926 16.6 322 7.7 102550 70
2005-01-13 07:32:38 51°16.595 2°52.916 16.5 330 7.7 102580 70
2005-01-13 07:32:44 51°16.613 2°52.902 15.7 331 7.7 102580 70
2005-01-13 07:32:49 51°16.629 2°52.892 18.7 332 7.7 102570 70
2005-01-13 07:32:54 51°16.645 2°52.882 16.6 331 7.7 102570 70
2005-01-13 07:32:59 51°16.661 2°52.872 17.8 328 7.8 102540 71
2005-01-13 07:33:04 51°16.677 2°52.861 18.4 330 7.8 102540 71
2005-01-13 07:33:09 51°16.693 2°52.851 18.2 329 7.8 102570 71
2005-01-13 07:33:15 51°16.71 2°52.841 17.8 324 7.8 102570 71
2005-01-13 07:33:19 51°16.722 2°52.832 17.5 323 7.7 102580 70
2005-01-13 07:33:24 51°16.737 2°52.824 18.9 324 7.7 102580 70
2005-01-13 07:33:29 51°16.753 2°52.813 19.5 321 7.8 102540 70
2005-01-13 07:33:33 51°16.766 2°52.803 17 330 7.8 102540 70
2005-01-13 07:33:39 51°16.785 2°52.791 18.2 326 7.7 102600 70
2005-01-13 07:33:43 51°16.797 2°52.782 16.5 326 7.7 102600 70
2005-01-13 07:33:49 51°16.815 2°52.771 17.7 330 7.7 102570 70
2005-01-13 07:33:53 51°16.828 2°52.763 15.9 332 7.7 102570 70
2005-01-13 07:33:59 51°16.848 2°52.749 16.5 328 7.7 102530 71
2005-01-13 07:34:04 51°16.864 2°52.738 16.9 328 7.7 102530 71
2005-01-13 07:34:09 51°16.879 2°52.727 19.7 334 7.7 102540 71
2005-01-13 07:34:13 51°16.891 2°52.718 20.2 330 7.7 102540 71
2005-01-13 07:34:19 51°16.912 2°52.707 16.9 332 7.8 102570 71
2005-01-13 07:34:24 51°16.927 2°52.696 18.2 327 7.8 102570 71
2005-01-13 07:34:29 51°16.943 2°52.684 17.2 327 7.8 102580 71
2005-01-13 07:34:34 51°16.959 2°52.674 17.2 330 7.8 102580 71
2005-01-13 07:34:37 51°16.969 2°52.666 18.8 331 7.8 102590 71
2005-01-13 07:34:43 51°16.989 2°52.653 20.5 333 7.8 102590 71
2005-01-13 07:34:49 51°17.01 2°52.64 17.1 330 7.8 102560 70
2005-01-13 07:34:53 51°17.022 2°52.63 17 334 7.8 102560 70
2005-01-13 07:34:59 51°17.041 2°52.618 20 334 7.8 102580 71
2005-01-13 07:35:04 51°17.056 2°52.607 19.9 332 7.8 102580 71
2005-01-13 07:35:09 51°17.073 2°52.595 17.7 331 7.8 102560 70
2005-01-13 07:35:13 51°17.086 2°52.587 20.2 334 7.8 102560 70
2005-01-13 07:35:19 51°17.104 2°52.576 18 330 7.8 102560 70
2005-01-13 07:35:24 51°17.12 2°52.565 17.8 327 7.8 102560 70
2005-01-13 07:35:29 51°17.136 2°52.554 16.3 337 7.7 102560 69
2005-01-13 07:35:33 51°17.15 2°52.544 19.3 330 7.7 102560 69
2005-01-13 07:35:39 51°17.167 2°52.532 20.9 330 7.7 102560 70
2005-01-13 07:35:44 51°17.183 2°52.522 20.4 328 7.7 102560 70
2005-01-13 07:35:49 51°17.201 2°52.511 19.3 337 7.8 102530 70
2005-01-13 07:35:53 51°17.213 2°52.504 19.3 330 7.8 102530 70
2005-01-13 07:35:59 51°17.231 2°52.491 20.6 332 7.8 102570 70
2005-01-13 07:36:04 51°17.245 2°52.483 20.5 331 7.8 102570 70
2005-01-13 07:36:09 51°17.262 2°52.472 19.1 328 7.7 102550 70
2005-01-13 07:36:14 51°17.277 2°52.462 20.8 324 7.7 102550 70
2005-01-13 07:36:19 51°17.292 2°52.452 20.5 328 7.7 102550 70
2005-01-13 07:36:24 51°17.308 2°52.443 19.7 327 7.7 102550 70
2005-01-13 07:36:29 51°17.325 2°52.434 19.3 328 7.7 102560 69
2005-01-13 07:36:33 51°17.337 2°52.428 20.5 327 7.7 102560 69
2005-01-13 07:36:39 51°17.355 2°52.417 20.8 325 7.7 102550 69
2005-01-13 07:36:43 51°17.369 2°52.41 18.7 327 7.7 102550 69
2005-01-13 07:36:49 51°17.387 2°52.4 19.4 325 7.7 102540 69
2005-01-13 07:36:53 51°17.401 2°52.393 19.7 332 7.7 102540 69
2005-01-13 07:36:59 51°17.421 2°52.386 18.6 322 7.7 102570 69
2005-01-13 07:37:03 51°17.435 2°52.38 18.5 318 7.7 102570 69
2005-01-13 07:37:09 51°17.455 2°52.373 18.8 320 7.7 102530 69
2005-01-13 07:37:14 51°17.47 2°52.368 19.8 321 7.7 102530 69
2005-01-13 07:37:19 51°17.489 2°52.362 16.4 319 7.7 102520 70
2005-01-13 07:37:25 51°17.506 2°52.356 18 319 7.7 102520 70
2005-01-13 07:37:29 51°17.52 2°52.35 18.4 316 7.7 102550 70
2005-01-13 07:37:34 51°17.536 2°52.343 16.8 323 7.7 102550 70
2005-01-13 07:37:39 51°17.552 2°52.337 16.7 329 7.7 102590 70
2005-01-13 07:37:44 51°17.57 2°52.33 18.2 323 7.7 102590 70
2005-01-13 07:37:49 51°17.586 2°52.325 18.3 318 7.7 102580 70
2005-01-13 07:37:54 51°17.603 2°52.32 17.3 325 7.7 102580 70
2005-01-13 07:37:59 51°17.622 2°52.315 18.3 315 7.7 102570 70
2005-01-13 07:38:04 51°17.637 2°52.311 17.5 319 7.7 102570 70
2005-01-13 07:38:09 51°17.653 2°52.307 19.6 43 7.7 102550 70
2005-01-13 07:38:14 51°17.671 2°52.304 17.6 317 7.7 102550 70
2005-01-13 07:38:19 51°17.687 2°52.3 18.7 322 7.7 102560 70
2005-01-13 07:38:23 51°17.701 2°52.297 20.9 318 7.7 102560 70
2005-01-13 07:38:29 51°17.721 2°52.294 19.6 321 7.7 102540 70
2005-01-13 07:38:33 51°17.735 2°52.289 19.3 321 7.7 102540 70
2005-01-13 07:38:39 51°17.757 2°52.285 19.9 43 7.7 102510 70
2005-01-13 07:38:43 51°17.77 2°52.284 20.5 319 7.7 102510 70
2005-01-13 07:38:49 51°17.79 2°52.279 19.1 317 7.7 102580 70
2005-01-13 07:38:53 51°17.803 2°52.276 18 324 7.7 102580 70
2005-01-13 07:38:59 51°17.825 2°52.273 17.2 41 7.7 102510 69
2005-01-13 07:39:04 51°17.842 2°52.268 17.5 317 7.7 102510 69
2005-01-13 07:39:09 51°17.857 2°52.264 19.5 314 7.7 102560 69
2005-01-13 07:39:14 51°17.876 2°52.262 19.5 39 7.7 102560 69
2005-01-13 07:39:19 51°17.893 2°52.256 17.7 38 7.6 102580 69
2005-01-13 07:39:24 51°17.91 2°52.253 19.9 316 7.6 102580 69
2005-01-13 07:39:29 51°17.927 2°52.248 20.1 320 7.6 102520 69
2005-01-13 07:39:34 51°17.945 2°52.244 17.2 320 7.6 102520 69
2005-01-13 07:39:39 51°17.961 2°52.238 20 321 7.6 102530 69
2005-01-13 07:39:45 51°17.984 2°52.235 22 320 7.6 102530 69
2005-01-13 07:39:49 51°17.997 2°52.232 17 43 7.6 102570 69
2005-01-13 07:39:54 51°18.015 2°52.23 15.7 308 7.6 102570 69
2005-01-13 07:39:59 51°18.029 2°52.228 17.6 317 7.6 102550 69
2005-01-13 07:40:05 51°18.049 2°52.228 19.2 38 7.6 102550 69
2005-01-13 07:40:09 51°18.062 2°52.226 19.6 316 7.6 102550 69
2005-01-13 07:40:13 51°18.075 2°52.222 20.3 42 7.6 102550 69
2005-01-13 07:40:19 51°18.095 2°52.219 19.3 315 7.6 102530 69
2005-01-13 07:40:24 51°18.113 2°52.215 19.4 226 7.6 102530 69
2005-01-13 07:40:29 51°18.128 2°52.21 20.7 318 7.6 102610 70
2005-01-13 07:40:34 51°18.147 2°52.209 17.8 40 7.6 102610 70
2005-01-13 07:40:39 51°18.162 2°52.204 16.4 226 7.6 102540 69
2005-01-13 07:40:43 51°18.175 2°52.202 17.5 229 7.6 102540 69
2005-01-13 07:40:49 51°18.196 2°52.2 16.3 310 7.6 102530 69
2005-01-13 07:40:54 51°18.211 2°52.2 15.4 43 7.6 102530 69
2005-01-13 07:40:58 51°18.224 2°52.203 19.1 304 7.6 102540 70
2005-01-13 07:41:03 51°18.241 2°52.205 17.4 307 7.6 102540 70
2005-01-13 07:41:09 51°18.261 2°52.207 17.3 304 7.6 102590 70
2005-01-13 07:41:13 51°18.274 2°52.21 15.2 233 7.6 102590 70
2005-01-13 07:41:17 51°18.288 2°52.213 15.5 304 7.6 102530 71
2005-01-13 07:41:25 51°18.316 2°52.219 17.4 307 7.6 102530 71
2005-01-13 07:41:29 51°18.33 2°52.224 16.1 308 7.6 102560 71
2005-01-13 07:41:34 51°18.348 2°52.232 17.3 304 7.6 102560 71
2005-01-13 07:41:39 51°18.366 2°52.238 15.1 305 7.6 102590 71
2005-01-13 07:41:43 51°18.379 2°52.246 16.1 299 7.6 102590 71
2005-01-13 07:41:49 51°18.4 2°52.255 14.5 300 7.6 102560 70
2005-01-13 07:41:53 51°18.413 2°52.259 14.5 301 7.6 102560 70
2005-01-13 07:41:59 51°18.431 2°52.271 16.6 297 7.6 102590 71
2005-01-13 07:42:05 51°18.452 2°52.281 14.5 300 7.6 102590 71
2005-01-13 07:42:09 51°18.465 2°52.284 15.5 309 7.6 102590 71
2005-01-13 07:42:14 51°18.481 2°52.293 15.2 304 7.6 102590 71
2005-01-13 07:42:19 51°18.499 2°52.299 14.2 305 7.6 102590 71
2005-01-13 07:42:23 51°18.512 2°52.304 17.4 304 7.6 102590 71
2005-01-13 07:42:29 51°18.533 2°52.313 16.2 305 7.6 102560 71
2005-01-13 07:42:33 51°18.547 2°52.32 18.4 299 7.6 102560 71
2005-01-13 07:42:38 51°18.564 2°52.326 15.2 302 7.6 102610 71
2005-01-13 07:42:43 51°18.581 2°52.335 14.2 297 7.6 102610 71
2005-01-13 07:42:49 51°18.6 2°52.345 16 308 7.6 102580 71
2005-01-13 07:42:53 51°18.615 2°52.35 16.2 307 7.6 102580 71
2005-01-13 07:42:59 51°18.636 2°52.359 16.1 314 7.6 102560 71
2005-01-13 07:43:03 51°18.65 2°52.365 16.4 304 7.6 102560 71
2005-01-13 07:43:09 51°18.669 2°52.374 16.5 310 7.6 102610 71
2005-01-13 07:43:13 51°18.683 2°52.381 16.3 308 7.6 102610 71
2005-01-13 07:43:19 51°18.702 2°52.391 16.9 309 7.6 102580 72
2005-01-13 07:43:22 51°18.713 2°52.396 14.5 309 7.6 102580 72
2005-01-13 07:43:29 51°18.737 2°52.408 14.8 307 7.6 102590 72
2005-01-13 07:43:33 51°18.75 2°52.416 16.6 303 7.6 102590 72
2005-01-13 07:43:39 51°18.771 2°52.426 16 302 7.6 102580 72
2005-01-13 07:43:45 51°18.791 2°52.436 17.1 308 7.6 102580 72
2005-01-13 07:43:49 51°18.803 2°52.446 15.8 299 7.6 102580 72
2005-01-13 07:43:54 51°18.821 2°52.454 13.9 299 7.6 102580 72
2005-01-13 07:43:59 51°18.836 2°52.465 19.1 302 7.5 102580 72
2005-01-13 07:44:04 51°18.853 2°52.475 16.6 307 7.5 102580 72
2005-01-13 07:44:09 51°18.869 2°52.485 15.8 298 7.6 102600 72
2005-01-13 07:44:13 51°18.881 2°52.495 16.7 290 7.6 102600 72
2005-01-13 07:44:19 51°18.901 2°52.506 15.6 299 7.6 102550 72
2005-01-13 07:44:23 51°18.913 2°52.518 16.4 296 7.6 102550 72
2005-01-13 07:44:29 51°18.933 2°52.53 15.8 301 7.6 102580 71
2005-01-13 07:44:33 51°18.946 2°52.541 15.7 296 7.6 102580 71
2005-01-13 07:44:39 51°18.965 2°52.55 15.9 306 7.5 102600 71
2005-01-13 07:44:43 51°18.978 2°52.563 18.4 292 7.5 102600 71
2005-01-13 07:44:49 51°18.998 2°52.572 14.8 303 7.5 102610 71
2005-01-13 07:44:53 51°19.011 2°52.584 17 296 7.5 102610 71
2005-01-13 07:44:58 51°19.027 2°52.592 15.5 306 7.5 102580 70
2005-01-13 07:45:04 51°19.046 2°52.605 18.1 297 7.5 102580 70
2005-01-13 07:45:09 51°19.06 2°52.62 15.8 308 7.5 102600 71
2005-01-13 07:45:13 51°19.074 2°52.627 15.7 300 7.5 102600 71
2005-01-13 07:45:18 51°19.09 2°52.64 19.9 301 7.5 102630 71
2005-01-13 07:45:23 51°19.106 2°52.647 16.9 302 7.5 102630 71
2005-01-13 07:45:29 51°19.126 2°52.66 18 292 7.5 102630 71
2005-01-13 07:45:33 51°19.138 2°52.671 19.6 300 7.5 102630 71
2005-01-13 07:45:39 51°19.158 2°52.685 17.2 303 7.5 102590 71
2005-01-13 07:45:43 51°19.17 2°52.69 13.8 304 7.5 102590 71
2005-01-13 07:45:49 51°19.19 2°52.704 14.1 303 7.5 102560 71
2005-01-13 07:45:53 51°19.203 2°52.71 15.3 305 7.5 102560 71
2005-01-13 07:45:59 51°19.223 2°52.723 13.9 297 7.5 102600 70
2005-01-13 07:46:02 51°19.232 2°52.733 14.2 298 7.5 102600 70
2005-01-13 07:46:09 51°19.256 2°52.746 15.2 300 7.5 102570 71
2005-01-13 07:46:14 51°19.271 2°52.759 16.8 303 7.5 102570 71
2005-01-13 07:46:19 51°19.287 2°52.769 13.6 307 7.5 102600 71
2005-01-13 07:46:24 51°19.305 2°52.779 14 305 7.5 102600 71
2005-01-13 07:46:29 51°19.32 2°52.791 12.4 307 7.5 102600 71
2005-01-13 07:46:33 51°19.332 2°52.802 16.1 311 7.5 102600 71
2005-01-13 07:46:39 51°19.352 2°52.812 16.1 301 7.5 102610 71
2005-01-13 07:46:44 51°19.369 2°52.827 14.6 303 7.5 102610 71
2005-01-13 07:46:49 51°19.386 2°52.833 14.3 304 7.5 102600 71
2005-01-13 07:46:54 51°19.401 2°52.847 16.4 297 7.5 102600 71
2005-01-13 07:46:59 51°19.418 2°52.854 17.4 305 7.5 102600 71
2005-01-13 07:47:05 51°19.437 2°52.87 16 301 7.5 102600 71
2005-01-13 07:47:09 51°19.451 2°52.875 13.1 295 7.5 102590 71
2005-01-13 07:47:13 51°19.463 2°52.884 16 307 7.5 102590 71
2005-01-13 07:47:19 51°19.482 2°52.9 17.8 297 7.5 102590 71
2005-01-13 07:47:23 51°19.496 2°52.905 15 296 7.5 102590 71
2005-01-13 07:47:29 51°19.514 2°52.919 12.3 308 7.5 102580 71
2005-01-13 07:47:34 51°19.53 2°52.93 13.7 307 7.5 102580 71
2005-01-13 07:47:39 51°19.548 2°52.939 15.5 302 7.5 102610 70
2005-01-13 07:47:44 51°19.565 2°52.949 17 299 7.5 102610 70
2005-01-13 07:47:49 51°19.58 2°52.961 17.1 298 7.4 102550 70
2005-01-13 07:47:54 51°19.597 2°52.971 15.9 294 7.4 102550 70
2005-01-13 07:47:59 51°19.612 2°52.982 17.3 300 7.4 102580 71
2005-01-13 07:48:04 51°19.629 2°52.99 15.9 293 7.4 102580 71
2005-01-13 07:48:09 51°19.645 2°53.003 16 294 7.4 102580 70
2005-01-13 07:48:14 51°19.661 2°53.013 14.9 294 7.4 102580 70
2005-01-13 07:48:19 51°19.677 2°53.026 18.6 293 7.4 102560 70
2005-01-13 07:48:24 51°19.693 2°53.034 14.2 305 7.4 102560 70
2005-01-13 07:48:29 51°19.709 2°53.043 14.8 306 7.4 102560 70
2005-01-13 07:48:33 51°19.723 2°53.049 17.3 300 7.4 102560 70
2005-01-13 07:48:39 51°19.743 2°53.061 16.3 297 7.4 102590 70
2005-01-13 07:48:43 51°19.756 2°53.068 14.8 305 7.4 102590 70
2005-01-13 07:48:49 51°19.776 2°53.08 17.2 302 7.4 102550 70
2005-01-13 07:48:53 51°19.79 2°53.085 15.3 301 7.4 102550 70
2005-01-13 07:48:59 51°19.81 2°53.096 13.4 299 7.4 102590 70
2005-01-13 07:49:04 51°19.825 2°53.103 18.4 303 7.4 102590 70
2005-01-13 07:49:09 51°19.842 2°53.112 17.5 304 7.4 102580 70
2005-01-13 07:49:14 51°19.858 2°53.123 16.3 306 7.4 102580 70
2005-01-13 07:49:19 51°19.876 2°53.129 17.6 302 7.4 102570 70
2005-01-13 07:49:25 51°19.897 2°53.139 16.5 298 7.4 102570 70
2005-01-13 07:49:29 51°19.91 2°53.146 15.9 302 7.4 102580 70
2005-01-13 07:49:33 51°19.923 2°53.152 12.9 298 7.4 102580 70
2005-01-13 07:49:38 51°19.94 2°53.16 16.9 304 7.4 102590 69
2005-01-13 07:49:43 51°19.956 2°53.168 17.6 297 7.4 102590 69
2005-01-13 07:49:49 51°19.977 2°53.177 15 301 7.3 102580 69
2005-01-13 07:49:53 51°19.99 2°53.185 15.9 296 7.3 102580 69
2005-01-13 07:49:59 51°20.01 2°53.194 14.5 306 7.4 102580 69
2005-01-13 07:50:04 51°20.027 2°53.206 15.7 312 7.4 102580 69
2005-01-13 07:50:09 51°20.045 2°53.21 13 304 7.4 102610 69
2005-01-13 07:50:14 51°20.06 2°53.22 14.5 307 7.4 102610 69
2005-01-13 07:50:19 51°20.078 2°53.228 14.4 304 7.4 102620 70
2005-01-13 07:50:25 51°20.097 2°53.24 15.1 310 7.4 102620 70
2005-01-13 07:50:29 51°20.111 2°53.247 14.2 306 7.4 102590 70
2005-01-13 07:50:34 51°20.128 2°53.255 14.6 304 7.4 102590 70
2005-01-13 07:50:39 51°20.144 2°53.262 15.1 311 7.4 102610 70
2005-01-13 07:50:44 51°20.162 2°53.272 16.3 305 7.4 102610 70
2005-01-13 07:50:49 51°20.178 2°53.281 14.7 312 7.4 102580 70
2005-01-13 07:50:54 51°20.195 2°53.288 17 313 7.4 102580 70
2005-01-13 07:50:59 51°20.212 2°53.296 16.1 307 7.4 102570 70
2005-01-13 07:51:04 51°20.229 2°53.304 16.6 305 7.4 102570 70
2005-01-13 07:51:09 51°20.245 2°53.311 16.1 39 7.4 102620 70
2005-01-13 07:51:14 51°20.263 2°53.319 17.3 312 7.4 102620 70
2005-01-13 07:51:19 51°20.279 2°53.328 17.1 308 7.4 102580 70
2005-01-13 07:51:24 51°20.296 2°53.335 16 307 7.4 102580 70
2005-01-13 07:51:29 51°20.312 2°53.345 16.8 305 7.4 102590 70
2005-01-13 07:51:34 51°20.33 2°53.352 17.4 306 7.4 102590 70
2005-01-13 07:51:39 51°20.346 2°53.363 16.3 293 7.4 102610 70
2005-01-13 07:51:45 51°20.366 2°53.37 14.2 301 7.4 102610 70
2005-01-13 07:51:49 51°20.38 2°53.378 16.3 300 7.4 102570 69
2005-01-13 07:51:54 51°20.396 2°53.389 17.6 302 7.4 102570 69
2005-01-13 07:51:57 51°20.406 2°53.391 14.1 301 7.4 102570 69
2005-01-13 07:52:03 51°20.426 2°53.401 16.5 299 7.4 102570 69
2005-01-13 07:52:09 51°20.445 2°53.411 16.7 302 7.4 102560 69
2005-01-13 07:52:13 51°20.46 2°53.417 14.4 311 7.4 102560 69
2005-01-13 07:52:18 51°20.476 2°53.427 17.1 304 7.4 102570 69
2005-01-13 07:52:23 51°20.493 2°53.433 15.3 314 7.4 102570 69
2005-01-13 07:52:29 51°20.513 2°53.444 15.1 299 7.4 102600 69
2005-01-13 07:52:33 51°20.525 2°53.454 17.6 303 7.4 102600 69
2005-01-13 07:52:39 51°20.546 2°53.464 16.2 303 7.4 102580 69
2005-01-13 07:52:44 51°20.563 2°53.469 16 301 7.4 102580 69
2005-01-13 07:52:49 51°20.578 2°53.481 15.6 303 7.4 102600 70
2005-01-13 07:52:54 51°20.593 2°53.485 13 301 7.4 102600 70
2005-01-13 07:52:59 51°20.606 2°53.492 15.7 307 7.4 102590 70
2005-01-13 07:53:05 51°20.621 2°53.496 15.1 310 7.4 102590 70
2005-01-13 07:53:09 51°20.63 2°53.497 15.2 304 7.4 102570 70
2005-01-13 07:53:14 51°20.64 2°53.497 15.7 308 7.4 102570 70
2005-01-13 07:53:19 51°20.649 2°53.495 14.7 310 7.4 102600 70
2005-01-13 07:53:24 51°20.657 2°53.494 14.1 312 7.4 102600 70
2005-01-13 07:53:29 51°20.664 2°53.492 14.9 313 7.4 102610 70
2005-01-13 07:53:34 51°20.671 2°53.491 14 312 7.4 102610 70
2005-01-13 07:53:39 51°20.678 2°53.489 14.5 307 7.4 102600 71
2005-01-13 07:53:44 51°20.684 2°53.487 13.4 310 7.4 102600 71
2005-01-13 07:53:49 51°20.688 2°53.485 11.1 311 7.5 102620 70
2005-01-13 07:53:54 51°20.692 2°53.486 12.1 306 7.5 102620 70
2005-01-13 07:53:59 51°20.697 2°53.485 12.9 240 7.4 102610 70
2005-01-13 07:54:04 51°20.7 2°53.485 13.4 312 7.4 102610 70
2005-01-13 07:54:09 51°20.703 2°53.482 12.9 310 7.4 102610 70
2005-01-13 07:54:14 51°20.705 2°53.48 13.6 310 7.4 102610 70
2005-01-13 07:54:19 51°20.706 2°53.48 14.3 42 7.5 102620 71
2005-01-13 07:54:24 51°20.708 2°53.478 12.7 318 7.5 102620 71
2005-01-13 07:54:29 51°20.709 2°53.475 12.9 42 7.5 102610 71
2005-01-13 07:54:34 51°20.71 2°53.475 9.6 316 7.5 102610 71
2005-01-13 07:54:39 51°20.71 2°53.475 13.6 42 7.5 102630 70
2005-01-13 07:54:44 51°20.712 2°53.473 13.3 42 7.5 102630 70
2005-01-13 07:54:49 51°20.713 2°53.472 12.7 316 7.4 102620 70
2005-01-13 07:54:54 51°20.714 2°53.472 14.1 229 7.4 102620 70
2005-01-13 07:54:59 51°20.714 2°53.471 14.7 313 7.5 102630 70
2005-01-13 07:55:04 51°20.714 2°53.469 12 231 7.5 102630 70
2005-01-13 07:55:09 51°20.714 2°53.468 13.3 229 7.5 102610 71
2005-01-13 07:55:14 51°20.714 2°53.468 12.2 229 7.5 102610 71
2005-01-13 07:55:19 51°20.714 2°53.468 12.4 316 7.5 102620 71
2005-01-13 07:55:23 51°20.714 2°53.467 12.6 314 7.5 102620 71
2005-01-13 07:55:29 51°20.715 2°53.466 13.5 313 7.5 102610 70
2005-01-13 07:55:33 51°20.714 2°53.466 13.1 312 7.5 102610 70
2005-01-13 07:55:37 51°20.714 2°53.466 12.8 311 7.5 102620 70
2005-01-13 07:55:43 51°20.714 2°53.466 12.3 309 7.5 102620 70
2005-01-13 07:55:49 51°20.713 2°53.465 11.7 310 7.5 102620 71
2005-01-13 07:55:54 51°20.712 2°53.465 11.4 306 7.5 102620 71
2005-01-13 07:55:58 51°20.712 2°53.465 13.8 301 7.5 102620 70
2005-01-13 07:56:02 51°20.712 2°53.465 12.9 295 7.5 102620 70
2005-01-13 07:56:09 51°20.712 2°53.465 13.1 298 7.5 102620 70
2005-01-13 07:56:13 51°20.711 2°53.465 13.9 295 7.5 102620 70
2005-01-13 07:56:19 51°20.71 2°53.465 12.8 294 7.5 102620 71
2005-01-13 07:56:25 51°20.709 2°53.466 12.8 296 7.5 102620 71
2005-01-13 07:56:29 51°20.708 2°53.465 14.2 293 7.5 102620 71
2005-01-13 07:56:34 51°20.708 2°53.465 13.9 290 7.5 102620 71
2005-01-13 07:56:38 51°20.707 2°53.467 15.4 285 7.5 102620 70
2005-01-13 07:56:43 51°20.706 2°53.466 12.8 280 7.5 102620 70
2005-01-13 07:56:49 51°20.706 2°53.466 12.7 281 7.5 102630 70
2005-01-13 07:56:53 51°20.705 2°53.467 17.8 280 7.5 102630 70
2005-01-13 07:56:59 51°20.704 2°53.467 16.3 279 7.5 102620 70
2005-01-13 07:57:04 51°20.703 2°53.469 15.5 268 7.5 102620 70
2005-01-13 07:57:09 51°20.702 2°53.468 16.2 272 7.5 102610 70
2005-01-13 07:57:14 51°20.703 2°53.467 16 268 7.5 102610 70
2005-01-13 07:57:19 51°20.703 2°53.468 16.7 274 7.5 102620 70
2005-01-13 07:57:24 51°20.705 2°53.47 16.7 281 7.5 102620 70
2005-01-13 07:57:29 51°20.708 2°53.472 16.5 276 7.5 102620 70
2005-01-13 07:57:34 51°20.712 2°53.474 16.6 283 7.5 102620 70
2005-01-13 07:57:39 51°20.718 2°53.478 16.5 298 7.5 102620 69
2005-01-13 07:57:44 51°20.724 2°53.48 15.4 298 7.5 102620 69
2005-01-13 07:57:49 51°20.733 2°53.48 16.3 307 7.5 102610 69
2005-01-13 07:57:54 51°20.741 2°53.481 19.5 309 7.5 102610 69
2005-01-13 07:57:59 51°20.751 2°53.481 19 311 7.5 102620 68
2005-01-13 07:58:05 51°20.764 2°53.477 17.4 229 7.5 102620 68
2005-01-13 07:58:09 51°20.774 2°53.474 17.2 317 7.5 102600 68
2005-01-13 07:58:13 51°20.784 2°53.469 15.5 318 7.5 102600 68
2005-01-13 07:58:19 51°20.801 2°53.462 17.9 321 7.4 102610 68
2005-01-13 07:58:24 51°20.815 2°53.458 16.9 322 7.4 102610 68
2005-01-13 07:58:29 51°20.831 2°53.456 17.3 316 7.4 102570 68
2005-01-13 07:58:33 51°20.843 2°53.453 16.7 320 7.4 102570 68
2005-01-13 07:58:38 51°20.859 2°53.45 17.2 319 7.4 102580 68
2005-01-13 07:58:45 51°20.88 2°53.443 17 326 7.4 102580 68
2005-01-13 07:58:49 51°20.893 2°53.442 17.4 316 7.4 102600 68
2005-01-13 07:58:53 51°20.906 2°53.438 16.6 320 7.4 102600 68
2005-01-13 07:58:57 51°20.919 2°53.436 18.7 40 7.5 102560 68
2005-01-13 07:59:04 51°20.942 2°53.433 19.2 315 7.5 102560 68
2005-01-13 07:59:09 51°20.959 2°53.431 16.4 227 7.5 102590 69
2005-01-13 07:59:14 51°20.976 2°53.432 17.9 311 7.5 102590 69
2005-01-13 07:59:19 51°20.992 2°53.432 17.7 230 7.5 102590 70
2005-01-13 07:59:25 51°21.014 2°53.434 17.4 318 7.5 102590 70
2005-01-13 07:59:29 51°21.028 2°53.435 17.1 228 7.5 102580 69
2005-01-13 07:59:33 51°21.042 2°53.435 17.3 315 7.5 102580 69
2005-01-13 07:59:39 51°21.061 2°53.436 16.9 229 7.5 102610 69
2005-01-13 07:59:44 51°21.079 2°53.441 17.5 312 7.5 102610 69
2005-01-13 07:59:49 51°21.096 2°53.441 17.9 315 7.5 102580 70
2005-01-13 07:59:54 51°21.113 2°53.444 17.2 42 7.5 102580 70
2005-01-13 07:59:59 51°21.131 2°53.445 17.9 314 7.5 102580 70
2005-01-13 08:00:03 51°21.145 2°53.448 16.7 314 7.5 102580 70
2005-01-13 08:00:09 51°21.166 2°53.449 17.3 304 7.5 102580 69
2005-01-13 08:00:13 51°21.179 2°53.451 17.4 311 7.5 102580 69
2005-01-13 08:00:19 51°21.2 2°53.453 18.3 314 7.5 102600 69
2005-01-13 08:00:22 51°21.21 2°53.454 16.5 315 7.5 102600 69
2005-01-13 08:00:29 51°21.234 2°53.456 18.9 312 7.5 102590 69
2005-01-13 08:00:34 51°21.253 2°53.461 16.4 312 7.5 102590 69
2005-01-13 08:00:39 51°21.269 2°53.462 16.2 312 7.5 102580 68
2005-01-13 08:00:43 51°21.283 2°53.464 17.8 314 7.5 102580 68
2005-01-13 08:00:49 51°21.304 2°53.466 18.2 312 7.5 102590 69
2005-01-13 08:00:53 51°21.318 2°53.468 16 312 7.5 102590 69
2005-01-13 08:00:59 51°21.339 2°53.47 16.8 310 7.5 102580 69
2005-01-13 08:01:02 51°21.35 2°53.473 17.8 313 7.5 102580 69
2005-01-13 08:01:09 51°21.374 2°53.474 16.2 314 7.5 102590 69
2005-01-13 08:01:14 51°21.391 2°53.478 16.7 308 7.5 102590 69
2005-01-13 08:01:19 51°21.409 2°53.48 16.7 311 7.5 102580 69
2005-01-13 08:01:24 51°21.425 2°53.483 14.7 310 7.5 102580 69
2005-01-13 08:01:29 51°21.442 2°53.485 17.4 314 7.5 102610 69
2005-01-13 08:01:34 51°21.459 2°53.488 17.8 313 7.5 102610 69
2005-01-13 08:01:39 51°21.477 2°53.492 17.7 228 7.5 102590 70
2005-01-13 08:01:44 51°21.494 2°53.495 20.7 313 7.5 102590 70
2005-01-13 08:01:49 51°21.512 2°53.498 18.7 312 7.5 102590 70
2005-01-13 08:01:54 51°21.529 2°53.5 16 41 7.5 102590 70
2005-01-13 08:01:59 51°21.546 2°53.501 17.5 310 7.5 102590 70
2005-01-13 08:02:05 51°21.567 2°53.506 18 44 7.5 102590 70
2005-01-13 08:02:09 51°21.58 2°53.51 19.2 310 7.5 102560 69
2005-01-13 08:02:14 51°21.598 2°53.51 19.3 310 7.5 102560 69
2005-01-13 08:02:19 51°21.615 2°53.517 18.1 313 7.5 102580 69
2005-01-13 08:02:24 51°21.632 2°53.521 19.6 306 7.5 102580 69
2005-01-13 08:02:29 51°21.65 2°53.526 16.9 313 7.5 102570 69
2005-01-13 08:02:33 51°21.663 2°53.529 17.8 302 7.5 102570 69
2005-01-13 08:02:39 51°21.683 2°53.536 19.1 306 7.5 102560 69
2005-01-13 08:02:43 51°21.697 2°53.535 15.8 314 7.5 102560 69
2005-01-13 08:02:49 51°21.716 2°53.538 17.2 312 7.5 102570 68
2005-01-13 08:02:54 51°21.733 2°53.543 19.9 304 7.5 102570 68
2005-01-13 08:02:59 51°21.751 2°53.549 17.1 308 7.5 102590 68
2005-01-13 08:03:04 51°21.768 2°53.549 17.4 315 7.5 102590 68
2005-01-13 08:03:09 51°21.784 2°53.555 19.6 314 7.5 102570 68
2005-01-13 08:03:14 51°21.801 2°53.559 20.6 311 7.5 102570 68
2005-01-13 08:03:19 51°21.819 2°53.564 17.4 310 7.5 102580 68
2005-01-13 08:03:25 51°21.84 2°53.568 18.2 228 7.5 102580 68
2005-01-13 08:03:29 51°21.854 2°53.568 17.8 313 7.5 102580 68
2005-01-13 08:03:33 51°21.867 2°53.573 18.3 309 7.5 102580 68
2005-01-13 08:03:39 51°21.888 2°53.579 20.4 304 7.5 102570 68
2005-01-13 08:03:44 51°21.905 2°53.582 18.7 313 7.5 102570 68
2005-01-13 08:03:49 51°21.923 2°53.586 19.3 308 7.5 102570 68
2005-01-13 08:03:54 51°21.939 2°53.591 16.3 301 7.5 102570 68
2005-01-13 08:03:57 51°21.95 2°53.592 17.6 308 7.5 102600 67
2005-01-13 08:04:02 51°21.967 2°53.596 15.8 307 7.5 102600 67
2005-01-13 08:04:09 51°21.991 2°53.601 16 306 7.5 102600 67
2005-01-13 08:04:14 51°22.008 2°53.603 16.6 305 7.5 102600 67
2005-01-13 08:04:19 51°22.024 2°53.609 18.7 308 7.5 102600 68
2005-01-13 08:04:21 51°22.032 2°53.61 19 307 7.5 102600 68
2005-01-13 08:04:29 51°22.059 2°53.617 17 304 7.5 102580 68
2005-01-13 08:04:34 51°22.076 2°53.621 16.6 309 7.5 102580 68
2005-01-13 08:04:39 51°22.095 2°53.626 15.3 308 7.5 102600 68
2005-01-13 08:04:44 51°22.111 2°53.627 16.1 313 7.5 102600 68
2005-01-13 08:04:49 51°22.128 2°53.629 15.8 40 7.5 102590 68
2005-01-13 08:04:53 51°22.143 2°53.631 16.9 314 7.5 102590 68
2005-01-13 08:04:57 51°22.156 2°53.634 17.6 306 7.5 102590 68
2005-01-13 08:05:05 51°22.184 2°53.64 15 314 7.5 102590 68
2005-01-13 08:05:09 51°22.197 2°53.643 17.7 314 7.5 102590 69
2005-01-13 08:05:14 51°22.215 2°53.648 17.9 310 7.5 102590 69
2005-01-13 08:05:19 51°22.232 2°53.651 20.2 312 7.5 102590 70
2005-01-13 08:05:24 51°22.249 2°53.655 16.3 43 7.5 102590 70
2005-01-13 08:05:29 51°22.266 2°53.66 16.3 308 7.6 102600 70
2005-01-13 08:05:33 51°22.28 2°53.663 18.2 305 7.6 102600 70
2005-01-13 08:05:39 51°22.301 2°53.668 18.4 309 7.5 102580 69
2005-01-13 08:05:45 51°22.321 2°53.672 15.7 309 7.5 102580 69
2005-01-13 08:05:49 51°22.335 2°53.675 17.4 303 7.5 102580 69
2005-01-13 08:05:54 51°22.352 2°53.678 15.4 317 7.5 102580 69
2005-01-13 08:05:59 51°22.37 2°53.682 14.9 314 7.5 102580 69
2005-01-13 08:06:03 51°22.384 2°53.685 15 312 7.5 102580 69
2005-01-13 08:06:09 51°22.404 2°53.692 16.6 230 7.5 102600 69
2005-01-13 08:06:13 51°22.417 2°53.694 18.2 311 7.5 102600 69
2005-01-13 08:06:17 51°22.431 2°53.697 17 231 7.5 102590 69
2005-01-13 08:06:23 51°22.452 2°53.702 15.3 311 7.5 102590 69
2005-01-13 08:06:29 51°22.472 2°53.705 16.6 308 7.6 102610 69
2005-01-13 08:06:33 51°22.486 2°53.712 16.7 310 7.6 102610 69
2005-01-13 08:06:39 51°22.506 2°53.718 18 310 7.5 102580 70
2005-01-13 08:06:44 51°22.523 2°53.723 18.2 302 7.5 102580 70
2005-01-13 08:06:49 51°22.54 2°53.731 17.4 312 7.5 102590 69
2005-01-13 08:06:54 51°22.558 2°53.732 18.5 307 7.5 102590 69
2005-01-13 08:06:59 51°22.574 2°53.744 14.9 311 7.6 102610 69
2005-01-13 08:07:04 51°22.59 2°53.747 17.2 306 7.6 102610 69
2005-01-13 08:07:09 51°22.606 2°53.757 19.4 302 7.5 102600 69
2005-01-13 08:07:13 51°22.62 2°53.763 17.4 304 7.5 102600 69
2005-01-13 08:07:19 51°22.641 2°53.773 16.9 302 7.5 102580 69
2005-01-13 08:07:23 51°22.653 2°53.784 19.3 303 7.5 102580 69
2005-01-13 08:07:29 51°22.673 2°53.792 18.4 294 7.5 102610 68
2005-01-13 08:07:34 51°22.688 2°53.806 17.1 300 7.5 102610 68
2005-01-13 08:07:39 51°22.704 2°53.814 18.6 299 7.5 102580 69
2005-01-13 08:07:44 51°22.72 2°53.825 17.9 294 7.5 102580 69
2005-01-13 08:07:49 51°22.736 2°53.839 17 296 7.5 102610 68
2005-01-13 08:07:54 51°22.753 2°53.844 14.7 298 7.5 102610 68
2005-01-13 08:07:59 51°22.767 2°53.861 17.1 297 7.5 102610 68
2005-01-13 08:08:05 51°22.786 2°53.871 14.2 291 7.5 102610 68
2005-01-13 08:08:09 51°22.798 2°53.883 15.1 300 7.5 102610 68
2005-01-13 08:08:14 51°22.815 2°53.891 16.2 294 7.5 102610 68
2005-01-13 08:08:19 51°22.83 2°53.907 16.5 295 7.5 102600 68
2005-01-13 08:08:24 51°22.845 2°53.917 16.5 294 7.5 102600 68
2005-01-13 08:08:29 51°22.861 2°53.93 17.9 301 7.5 102570 68
2005-01-13 08:08:33 51°22.874 2°53.937 18 292 7.5 102570 68
2005-01-13 08:08:39 51°22.893 2°53.952 17.3 295 7.5 102600 68
2005-01-13 08:08:45 51°22.911 2°53.964 13.1 301 7.5 102600 68
2005-01-13 08:08:49 51°22.923 2°53.973 14.9 298 7.5 102590 68
2005-01-13 08:08:54 51°22.938 2°53.99 13.6 301 7.5 102590 68
2005-01-13 08:08:59 51°22.955 2°53.999 14.1 289 7.5 102600 67
2005-01-13 08:09:03 51°22.966 2°54.011 16.2 290 7.5 102600 67
2005-01-13 08:09:09 51°22.984 2°54.026 17 292 7.5 102610 68
2005-01-13 08:09:13 51°22.996 2°54.037 16 286 7.5 102610 68
2005-01-13 08:09:19 51°23.015 2°54.051 15.9 295 7.5 102630 69
2005-01-13 08:09:23 51°23.027 2°54.064 14.1 287 7.5 102630 69
2005-01-13 08:09:29 51°23.045 2°54.075 18.1 288 7.5 102640 68
2005-01-13 08:09:33 51°23.056 2°54.089 16.5 289 7.5 102640 68
2005-01-13 08:09:39 51°23.075 2°54.103 15.9 293 7.5 102610 68
2005-01-13 08:09:45 51°23.093 2°54.12 14.9 290 7.5 102610 68
2005-01-13 08:09:49 51°23.104 2°54.134 19 292 7.5 102650 68
2005-01-13 08:09:54 51°23.12 2°54.144 14.3 297 7.5 102650 68
2005-01-13 08:09:57 51°23.128 2°54.154 13.6 293 7.5 102640 68
2005-01-13 08:10:02 51°23.144 2°54.165 13.3 288 7.5 102640 68
2005-01-13 08:10:09 51°23.164 2°54.183 15.7 294 7.5 102630 69
2005-01-13 08:10:14 51°23.18 2°54.196 12.3 302 7.5 102630 69
2005-01-13 08:10:19 51°23.195 2°54.209 13.5 297 7.5 102580 69
2005-01-13 08:10:25 51°23.213 2°54.225 13.1 298 7.5 102580 69
2005-01-13 08:10:29 51°23.225 2°54.235 14.7 290 7.5 102620 69
2005-01-13 08:10:34 51°23.241 2°54.249 12.2 298 7.5 102620 69
2005-01-13 08:10:39 51°23.255 2°54.261 15.1 293 7.5 102620 69
2005-01-13 08:10:44 51°23.27 2°54.277 13 293 7.5 102620 69
2005-01-13 08:10:49 51°23.286 2°54.288 12.5 300 7.5 102580 70
2005-01-13 08:10:53 51°23.297 2°54.302 15 298 7.5 102580 70
2005-01-13 08:10:57 51°23.31 2°54.31 13.8 295 7.5 102570 70
2005-01-13 08:11:04 51°23.331 2°54.327 12.7 309 7.5 102570 70
2005-01-13 08:11:09 51°23.347 2°54.34 14 299 7.5 102580 70
2005-01-13 08:11:14 51°23.361 2°54.356 14.5 293 7.5 102580 70
2005-01-13 08:11:19 51°23.376 2°54.367 15.5 299 7.5 102590 70
2005-01-13 08:11:24 51°23.392 2°54.38 19.4 293 7.5 102590 70
2005-01-13 08:11:29 51°23.407 2°54.393 16.5 292 7.5 102570 70
2005-01-13 08:11:33 51°23.419 2°54.404 14.3 295 7.5 102570 70
2005-01-13 08:11:39 51°23.437 2°54.42 16.2 293 7.5 102570 70
2005-01-13 08:11:43 51°23.449 2°54.43 15.8 290 7.5 102570 70
2005-01-13 08:11:49 51°23.467 2°54.447 15 290 7.5 102580 69
2005-01-13 08:11:53 51°23.48 2°54.455 13.6 294 7.5 102580 69
2005-01-13 08:11:59 51°23.499 2°54.471 13.7 295 7.5 102570 69
2005-01-13 08:12:02 51°23.507 2°54.48 13.5 297 7.5 102570 69
2005-01-13 08:12:09 51°23.528 2°54.498 15.4 296 7.5 102570 69
2005-01-13 08:12:14 51°23.543 2°54.511 12.2 297 7.5 102570 69
2005-01-13 08:12:19 51°23.558 2°54.525 14 294 7.5 102560 69
2005-01-13 08:12:22 51°23.567 2°54.535 13.8 292 7.5 102560 69
2005-01-13 08:12:29 51°23.586 2°54.558 12.9 284 7.5 102580 69
2005-01-13 08:12:33 51°23.599 2°54.568 11.8 288 7.5 102580 69
2005-01-13 08:12:39 51°23.616 2°54.586 13.1 290 7.5 102580 70
2005-01-13 08:12:44 51°23.631 2°54.6 14.3 292 7.5 102580 70
2005-01-13 08:12:49 51°23.644 2°54.617 13.4 303 7.5 102590 70
2005-01-13 08:12:54 51°23.659 2°54.631 13.1 283 7.5 102590 70
2005-01-13 08:12:59 51°23.673 2°54.649 12.6 278 7.5 102580 69
2005-01-13 08:13:04 51°23.688 2°54.663 12.2 286 7.5 102580 69
2005-01-13 08:13:09 51°23.702 2°54.681 14.6 287 7.5 102590 69
2005-01-13 08:13:14 51°23.718 2°54.694 13.6 288 7.5 102590 69
2005-01-13 08:13:19 51°23.731 2°54.71 13 282 7.5 102580 69
2005-01-13 08:13:24 51°23.746 2°54.725 12.5 288 7.5 102580 69
2005-01-13 08:13:29 51°23.759 2°54.742 11.1 288 7.5 102580 69
2005-01-13 08:13:33 51°23.771 2°54.753 13.3 292 7.5 102580 69
2005-01-13 08:13:39 51°23.788 2°54.773 12.3 294 7.5 102580 69
2005-01-13 08:13:44 51°23.802 2°54.788 16.6 280 7.5 102580 69
2005-01-13 08:13:49 51°23.815 2°54.808 13 311 7.5 102590 70
2005-01-13 08:13:53 51°23.828 2°54.815 14.1 292 7.5 102590 70
2005-01-13 08:13:59 51°23.844 2°54.837 14.3 297 7.5 102590 70
2005-01-13 08:14:04 51°23.859 2°54.85 15.3 297 7.5 102590 70
2005-01-13 08:14:09 51°23.874 2°54.866 15.3 299 7.5 102590 70
2005-01-13 08:14:14 51°23.889 2°54.878 14.6 291 7.5 102590 70
2005-01-13 08:14:19 51°23.901 2°54.897 15.2 294 7.5 102590 70
2005-01-13 08:14:23 51°23.914 2°54.904 11.6 295 7.5 102590 70
2005-01-13 08:14:29 51°23.93 2°54.926 12.8 292 7.5 102580 70
2005-01-13 08:14:33 51°23.943 2°54.936 11.2 297 7.5 102580 70
2005-01-13 08:14:39 51°23.958 2°54.956 13.8 288 7.5 102570 70
2005-01-13 08:14:44 51°23.971 2°54.972 12.5 295 7.5 102570 70
2005-01-13 08:14:49 51°23.987 2°54.986 14.3 296 7.5 102570 70
2005-01-13 08:14:54 51°24 2°55.001 15.3 294 7.5 102570 70
2005-01-13 08:14:59 51°24.013 2°55.018 14.2 294 7.5 102570 70
2005-01-13 08:15:05 51°24.031 2°55.036 14.3 289 7.5 102570 70
2005-01-13 08:15:09 51°24.042 2°55.048 16.1 289 7.5 102580 70
2005-01-13 08:15:14 51°24.056 2°55.063 15.3 288 7.5 102580 70
2005-01-13 08:15:19 51°24.07 2°55.08 15.8 299 7.5 102600 70
2005-01-13 08:15:24 51°24.086 2°55.093 17.3 288 7.5 102600 70
2005-01-13 08:15:29 51°24.1 2°55.11 15.2 288 7.5 102570 70
2005-01-13 08:15:33 51°24.112 2°55.117 12.7 295 7.5 102570 70
2005-01-13 08:15:39 51°24.129 2°55.139 13.1 284 7.5 102580 69
2005-01-13 08:15:44 51°24.142 2°55.153 9.8 299 7.5 102580 69
2005-01-13 08:15:49 51°24.158 2°55.167 11.7 284 7.5 102590 69
2005-01-13 08:15:54 51°24.171 2°55.186 14.6 287 7.5 102590 69
2005-01-13 08:15:59 51°24.186 2°55.199 10.2 291 7.4 102570 69
2005-01-13 08:16:05 51°24.203 2°55.213 12 289 7.4 102570 69
2005-01-13 08:16:09 51°24.213 2°55.231 17.2 291 7.5 102570 70
2005-01-13 08:16:14 51°24.228 2°55.243 14.3 290 7.5 102570 70
2005-01-13 08:16:19 51°24.242 2°55.259 12.5 284 7.5 102590 70
2005-01-13 08:16:24 51°24.256 2°55.274 13.8 291 7.5 102590 70
2005-01-13 08:16:29 51°24.27 2°55.289 13.8 287 7.5 102590 70
2005-01-13 08:16:33 51°24.281 2°55.302 13.1 299 7.5 102590 70
2005-01-13 08:16:39 51°24.299 2°55.319 13.8 287 7.5 102580 70
2005-01-13 08:16:43 51°24.309 2°55.332 11.3 297 7.5 102580 70
2005-01-13 08:16:49 51°24.326 2°55.352 13.7 293 7.5 102580 69
2005-01-13 08:16:53 51°24.338 2°55.362 10.9 298 7.5 102580 69
2005-01-13 08:16:59 51°24.354 2°55.382 10.5 288 7.5 102590 70
2005-01-13 08:17:03 51°24.365 2°55.396 12.5 291 7.5 102590 70
2005-01-13 08:17:09 51°24.382 2°55.416 11.6 286 7.5 102590 70
2005-01-13 08:17:13 51°24.392 2°55.431 13.7 284 7.5 102590 70
2005-01-13 08:17:19 51°24.408 2°55.451 12.2 287 7.5 102590 71
2005-01-13 08:17:25 51°24.424 2°55.472 11.8 274 7.5 102590 71
2005-01-13 08:17:29 51°24.435 2°55.487 11.7 282 7.5 102600 71
2005-01-13 08:17:33 51°24.446 2°55.5 13.3 282 7.5 102600 71
2005-01-13 08:17:39 51°24.46 2°55.525 12.5 290 7.5 102590 70
2005-01-13 08:17:43 51°24.473 2°55.535 11.9 286 7.5 102590 70
2005-01-13 08:17:49 51°24.487 2°55.559 14.2 287 7.5 102600 70
2005-01-13 08:17:53 51°24.498 2°55.572 13.9 289 7.5 102600 70
2005-01-13 08:17:59 51°24.513 2°55.594 14.8 279 7.5 102590 70
2005-01-13 08:18:03 51°24.524 2°55.608 13.2 283 7.5 102590 70
2005-01-13 08:18:09 51°24.541 2°55.626 10.4 276 7.5 102600 70
2005-01-13 08:18:13 51°24.55 2°55.643 10.9 281 7.5 102600 70
2005-01-13 08:18:19 51°24.566 2°55.661 12.8 285 7.5 102590 70
2005-01-13 08:18:22 51°24.574 2°55.673 13.6 273 7.5 102590 70
2005-01-13 08:18:29 51°24.591 2°55.697 12.4 271 7.5 102590 70
2005-01-13 08:18:33 51°24.6 2°55.714 14.7 285 7.5 102590 70
2005-01-13 08:18:39 51°24.618 2°55.731 10.2 295 7.5 102610 70
2005-01-13 08:18:43 51°24.627 2°55.747 14.6 286 7.5 102610 70
2005-01-13 08:18:49 51°24.644 2°55.766 11 295 7.5 102600 70
2005-01-13 08:18:53 51°24.654 2°55.78 13.8 289 7.5 102600 70
2005-01-13 08:18:58 51°24.668 2°55.795 12.6 296 7.5 102600 70
2005-01-13 08:19:03 51°24.681 2°55.814 12.5 285 7.5 102600 70
2005-01-13 08:19:09 51°24.695 2°55.835 13.8 290 7.5 102600 70
2005-01-13 08:19:13 51°24.707 2°55.847 13.2 289 7.5 102600 70
2005-01-13 08:19:17 51°24.718 2°55.861 12.4 298 7.5 102590 71
2005-01-13 08:19:23 51°24.732 2°55.884 15.4 292 7.5 102590 71
2005-01-13 08:19:29 51°24.75 2°55.901 14.7 292 7.5 102600 71
2005-01-13 08:19:34 51°24.763 2°55.917 13.6 283 7.5 102600 71
2005-01-13 08:19:39 51°24.776 2°55.934 12.5 288 7.5 102590 71
2005-01-13 08:19:43 51°24.786 2°55.95 16.4 286 7.5 102590 71
2005-01-13 08:19:49 51°24.802 2°55.969 12 290 7.5 102590 71
2005-01-13 08:19:53 51°24.812 2°55.983 14.1 287 7.5 102590 71
2005-01-13 08:19:57 51°24.823 2°55.997 14 283 7.5 102590 70
2005-01-13 08:20:03 51°24.84 2°56.017 12.9 281 7.5 102590 70
2005-01-13 08:20:09 51°24.856 2°56.04 14.9 284 7.5 102600 70
2005-01-13 08:20:13 51°24.868 2°56.051 12.6 297 7.5 102600 70
2005-01-13 08:20:19 51°24.883 2°56.072 14.6 282 7.5 102590 70
2005-01-13 08:20:23 51°24.894 2°56.087 13.3 281 7.5 102590 70
2005-01-13 08:20:29 51°24.91 2°56.109 13.5 281 7.5 102580 70
2005-01-13 08:20:34 51°24.922 2°56.128 15.3 281 7.5 102580 70
2005-01-13 08:20:39 51°24.938 2°56.14 10.9 287 7.5 102590 70
2005-01-13 08:20:44 51°24.95 2°56.16 11.6 293 7.5 102590 70
2005-01-13 08:20:49 51°24.965 2°56.175 13.9 283 7.5 102590 70
2005-01-13 08:20:54 51°24.978 2°56.195 14.1 283 7.5 102590 70
2005-01-13 08:20:59 51°24.993 2°56.209 12.3 284 7.4 102580 70
2005-01-13 08:21:03 51°25.003 2°56.224 15.3 283 7.4 102580 70
2005-01-13 08:21:09 51°25.019 2°56.245 11.3 277 7.4 102600 70
2005-01-13 08:21:13 51°25.031 2°56.255 11.9 291 7.4 102600 70
2005-01-13 08:21:19 51°25.046 2°56.276 11.7 288 7.4 102610 69
2005-01-13 08:21:22 51°25.054 2°56.286 10.8 296 7.4 102610 69
2005-01-13 08:21:29 51°25.073 2°56.309 10.8 287 7.5 102590 69
2005-01-13 08:21:34 51°25.085 2°56.326 11.8 284 7.5 102590 69
2005-01-13 08:21:39 51°25.099 2°56.343 12.6 286 7.5 102590 70
2005-01-13 08:21:43 51°25.109 2°56.358 13.4 287 7.5 102590 70
2005-01-13 08:21:49 51°25.124 2°56.376 11.9 285 7.5 102580 70
2005-01-13 08:21:53 51°25.134 2°56.393 13.5 280 7.5 102580 70
2005-01-13 08:21:59 51°25.151 2°56.413 9.8 298 7.5 102610 70
2005-01-13 08:22:02 51°25.156 2°56.428 12.9 289 7.5 102610 70
2005-01-13 08:22:09 51°25.175 2°56.447 10.1 298 7.5 102580 70
2005-01-13 08:22:13 51°25.185 2°56.462 12.5 290 7.5 102580 70
2005-01-13 08:22:19 51°25.203 2°56.478 11 295 7.5 102590 70
2005-01-13 08:22:22 51°25.211 2°56.489 11.7 282 7.5 102590 70
2005-01-13 08:22:29 51°25.229 2°56.513 12.1 290 7.5 102600 70
2005-01-13 08:22:33 51°25.239 2°56.527 13.7 285 7.5 102600 70
2005-01-13 08:22:39 51°25.255 2°56.549 11.5 286 7.5 102600 71
2005-01-13 08:22:44 51°25.27 2°56.563 12.7 284 7.5 102600 71
2005-01-13 08:22:49 51°25.282 2°56.581 13.6 281 7.5 102600 71
2005-01-13 08:22:54 51°25.296 2°56.598 10.9 282 7.5 102600 71
2005-01-13 08:22:59 51°25.309 2°56.616 12.9 288 7.5 102600 71
2005-01-13 08:23:05 51°25.326 2°56.637 10.4 294 7.5 102600 71
2005-01-13 08:23:09 51°25.336 2°56.649 14.3 288 7.5 102580 71
2005-01-13 08:23:14 51°25.35 2°56.666 11.6 295 7.5 102580 71
2005-01-13 08:23:19 51°25.364 2°56.683 14.3 286 7.5 102580 71
2005-01-13 08:23:23 51°25.375 2°56.694 13.8 284 7.5 102580 71
2005-01-13 08:23:29 51°25.39 2°56.717 12.3 290 7.5 102580 71
2005-01-13 08:23:33 51°25.403 2°56.726 11 295 7.5 102580 71
2005-01-13 08:23:39 51°25.419 2°56.747 12.8 288 7.5 102590 70
2005-01-13 08:23:41 51°25.424 2°56.753 11.1 302 7.5 102590 70
2005-01-13 08:23:49 51°25.449 2°56.777 14.1 294 7.5 102580 70
2005-01-13 08:23:54 51°25.463 2°56.791 12.2 294 7.5 102580 70
2005-01-13 08:23:59 51°25.476 2°56.808 12.9 293 7.5 102580 70
2005-01-13 08:24:04 51°25.491 2°56.82 13.7 294 7.5 102580 70
2005-01-13 08:24:09 51°25.505 2°56.837 13.4 284 7.5 102590 71
2005-01-13 08:24:14 51°25.519 2°56.851 12.9 291 7.5 102590 71
2005-01-13 08:24:17 51°25.526 2°56.86 14.6 284 7.5 102590 71
2005-01-13 08:24:22 51°25.54 2°56.874 13.1 291 7.5 102590 71
2005-01-13 08:24:29 51°25.56 2°56.898 11.1 291 7.5 102570 70
2005-01-13 08:24:33 51°25.571 2°56.91 10.8 294 7.5 102570 70
2005-01-13 08:24:39 51°25.588 2°56.928 13.2 295 7.5 102580 69
2005-01-13 08:24:44 51°25.601 2°56.944 13.3 290 7.5 102580 69
2005-01-13 08:24:49 51°25.616 2°56.958 14.7 288 7.4 102580 69
2005-01-13 08:24:54 51°25.631 2°56.973 10.9 297 7.4 102580 69
2005-01-13 08:24:59 51°25.645 2°56.987 10.9 293 7.5 102590 70
2005-01-13 08:25:04 51°25.658 2°57.004 11.7 297 7.5 102590 70
2005-01-13 08:25:09 51°25.673 2°57.018 13.8 293 7.5 102600 70
2005-01-13 08:25:14 51°25.687 2°57.034 12.9 296 7.5 102600 70
2005-01-13 08:25:19 51°25.703 2°57.046 11.9 297 7.5 102580 70
2005-01-13 08:25:24 51°25.715 2°57.063 13.7 294 7.5 102580 70
2005-01-13 08:25:29 51°25.73 2°57.075 14.7 293 7.5 102590 70
2005-01-13 08:25:33 51°25.741 2°57.09 14 296 7.5 102590 70
2005-01-13 08:25:39 51°25.759 2°57.107 13.8 285 7.5 102580 70
2005-01-13 08:25:44 51°25.771 2°57.124 15.5 298 7.5 102580 70
2005-01-13 08:25:49 51°25.786 2°57.137 13.5 300 7.5 102600 70
2005-01-13 08:25:54 51°25.799 2°57.155 14.9 285 7.5 102600 70
2005-01-13 08:25:59 51°25.813 2°57.169 13.4 296 7.4 102590 70
2005-01-13 08:26:02 51°25.82 2°57.179 13.7 289 7.4 102590 70
2005-01-13 08:26:09 51°25.841 2°57.2 12.3 294 7.5 102580 70
2005-01-13 08:26:14 51°25.854 2°57.216 14.7 286 7.5 102580 70
2005-01-13 08:26:19 51°25.868 2°57.23 12.4 300 7.4 102580 69
2005-01-13 08:26:22 51°25.877 2°57.24 14 298 7.4 102580 69
2005-01-13 08:26:29 51°25.897 2°57.258 15.2 285 7.4 102580 69
2005-01-13 08:26:33 51°25.907 2°57.274 15 284 7.4 102580 69
2005-01-13 08:26:39 51°25.925 2°57.29 12.9 300 7.4 102590 69
2005-01-13 08:26:44 51°25.939 2°57.305 15.5 287 7.4 102590 69
2005-01-13 08:26:49 51°25.953 2°57.321 13.9 293 7.4 102590 70
2005-01-13 08:26:54 51°25.967 2°57.335 16.1 291 7.4 102590 70
2005-01-13 08:26:59 51°25.983 2°57.348 13.3 292 7.4 102590 69
2005-01-13 08:27:05 51°26 2°57.365 13.4 286 7.4 102590 69
2005-01-13 08:27:09 51°26.011 2°57.377 11.8 298 7.4 102590 69
2005-01-13 08:27:14 51°26.025 2°57.394 13.7 286 7.4 102590 69
2005-01-13 08:27:19 51°26.04 2°57.408 8.9 298 7.4 102580 69
2005-01-13 08:27:24 51°26.053 2°57.425 15.8 284 7.4 102580 69
2005-01-13 08:27:29 51°26.066 2°57.439 14.6 289 7.4 102580 69
2005-01-13 08:27:33 51°26.078 2°57.452 13.8 288 7.4 102580 69
2005-01-13 08:27:39 51°26.094 2°57.47 13.8 284 7.4 102590 69
2005-01-13 08:27:44 51°26.108 2°57.484 13.7 283 7.4 102590 69
2005-01-13 08:27:49 51°26.122 2°57.5 12.2 276 7.4 102600 70
2005-01-13 08:27:53 51°26.132 2°57.513 13 286 7.4 102600 70
2005-01-13 08:27:59 51°26.149 2°57.532 12.1 293 7.4 102590 69
2005-01-13 08:28:04 51°26.164 2°57.546 11.2 292 7.4 102590 69
2005-01-13 08:28:09 51°26.177 2°57.56 11.3 290 7.4 102580 69
2005-01-13 08:28:14 51°26.191 2°57.578 12.1 292 7.4 102580 69
2005-01-13 08:28:19 51°26.206 2°57.592 11.2 291 7.4 102580 69
2005-01-13 08:28:25 51°26.222 2°57.609 10.8 292 7.4 102580 69
2005-01-13 08:28:29 51°26.233 2°57.622 11.3 297 7.4 102590 70
2005-01-13 08:28:34 51°26.247 2°57.639 11.7 306 7.4 102590 70
2005-01-13 08:28:39 51°26.262 2°57.653 14.2 289 7.5 102600 70
2005-01-13 08:28:45 51°26.279 2°57.673 13.7 291 7.5 102600 70
2005-01-13 08:28:49 51°26.29 2°57.684 13.3 286 7.5 102590 70
2005-01-13 08:28:53 51°26.301 2°57.696 11.7 298 7.5 102590 70
2005-01-13 08:28:57 51°26.312 2°57.709 12.2 292 7.5 102590 70
2005-01-13 08:29:04 51°26.332 2°57.732 12.2 288 7.5 102590 70
2005-01-13 08:29:09 51°26.347 2°57.743 12.2 300 7.5 102590 70
2005-01-13 08:29:14 51°26.36 2°57.761 14.1 294 7.5 102590 70
2005-01-13 08:29:19 51°26.375 2°57.775 10.9 291 7.5 102590 70
2005-01-13 08:29:24 51°26.388 2°57.791 12.7 290 7.5 102590 70
2005-01-13 08:29:29 51°26.403 2°57.806 16.3 288 7.5 102590 69
2005-01-13 08:29:33 51°26.414 2°57.819 13.1 282 7.5 102590 69
2005-01-13 08:29:39 51°26.43 2°57.841 11.6 290 7.5 102590 70
2005-01-13 08:29:44 51°26.446 2°57.85 12.9 290 7.5 102590 70
2005-01-13 08:29:49 51°26.458 2°57.869 14.1 291 7.5 102590 70
2005-01-13 08:29:54 51°26.472 2°57.88 8 305 7.5 102590 70
2005-01-13 08:29:59 51°26.487 2°57.896 12.6 294 7.5 102600 69
2005-01-13 08:30:02 51°26.495 2°57.904 12.3 297 7.5 102600 69
2005-01-13 08:30:09 51°26.515 2°57.925 11.4 311 7.5 102600 70
2005-01-13 08:30:14 51°26.528 2°57.94 16.1 289 7.5 102600 70
2005-01-13 08:30:19 51°26.541 2°57.959 12.6 303 7.5 102590 70
2005-01-13 08:30:22 51°26.549 2°57.969 16.9 289 7.5 102590 70
2005-01-13 08:30:29 51°26.569 2°57.99 11.9 298 7.5 102590 70
2005-01-13 08:30:33 51°26.58 2°57.998 13.6 297 7.5 102590 70
2005-01-13 08:30:39 51°26.597 2°58.02 14.9 291 7.5 102610 70
2005-01-13 08:30:44 51°26.611 2°58.032 12.3 299 7.5 102610 70
2005-01-13 08:30:49 51°26.624 2°58.051 12.7 298 7.5 102590 70
2005-01-13 08:30:54 51°26.639 2°58.065 14.8 288 7.5 102590 70
2005-01-13 08:30:59 51°26.652 2°58.08 14.4 295 7.5 102580 70
2005-01-13 08:31:05 51°26.67 2°58.098 15.3 293 7.5 102580 70
2005-01-13 08:31:09 51°26.681 2°58.112 13.2 291 7.5 102590 70
2005-01-13 08:31:14 51°26.695 2°58.125 12.7 293 7.5 102590 70
2005-01-13 08:31:19 51°26.709 2°58.142 13.3 289 7.5 102580 69
2005-01-13 08:31:23 51°26.72 2°58.153 9.8 296 7.5 102580 69
2005-01-13 08:31:29 51°26.738 2°58.171 16.7 289 7.5 102580 69
2005-01-13 08:31:33 51°26.749 2°58.185 13.6 287 7.5 102580 69
2005-01-13 08:31:39 51°26.766 2°58.202 13.7 296 7.5 102590 69
2005-01-13 08:31:41 51°26.771 2°58.208 13.9 281 7.5 102590 69
2005-01-13 08:31:49 51°26.793 2°58.233 14.5 297 7.5 102580 69
2005-01-13 08:31:54 51°26.808 2°58.246 12 290 7.5 102580 69
2005-01-13 08:31:59 51°26.821 2°58.264 11.8 288 7.5 102590 70
2005-01-13 08:32:04 51°26.833 2°58.283 11 298 7.5 102590 70